This demonstration page uses our WeatherBlox Daily Observations layout. Learn more.

Left ArrowRight Arrow

34.16533, -84.80231

Hourly Observations for February 5, 2022

Temp ( °F °C ) Dew Point ( °F °C ) Humidity (%) Winds ( mph kmh ) Pressure ( in mb ) Visibility ( mi km ) Precip ( " mm )
12:15 am 00:15 Cloudy 32 0 28 -2 87 87 WNW 13 20 30.40 1029 10 16 0.00 0.00
12:35 am 00:35 Cloudy 32 0 27 -3 80 80 WNW 10 17 30.40 1029 10 16 0.00 0.00
12:55 am 00:55 Cloudy 32 0 27 -3 80 80 WNW 9 15 30.41 1030 10 16 0.00 0.00
1:15 am 01:15 Cloudy 32 0 27 -3 80 80 WNW 9 15 30.41 1030 10 16 0.00 0.00
1:35 am 01:35 Cloudy 32 0 27 -3 80 80 WNW 9 15 30.41 1030 10 16 0.00 0.00
1:55 am 01:55 Cloudy 32 0 27 -3 80 80 WNW 7 11 30.41 1030 10 16 0.00 0.00
2:15 am 02:15 Cloudy 32 0 27 -3 80 80 WNW 7 11 30.42 1030 10 16 0.00 0.00
2:35 am 02:35 Cloudy 32 0 25 -4 75 75 NW 10 17 30.42 1030 10 16 0.00 0.00
2:55 am 02:55 Cloudy 32 0 23 -5 69 69 NNW 9 15 30.43 1030 10 16 0.00 0.00
3:15 am 03:15 Partly Cloudy 30 -1 23 -5 75 75 VRB 7 11 30.43 1031 10 16 0.00 0.00
3:35 am 03:35 Mostly Cloudy 30 -1 23 -5 75 75 NW 9 15 30.43 1031 10 16 0.00 0.00
3:55 am 03:55 Cloudy 30 -1 23 -5 75 75 NW 8 13 30.43 1031 10 16 0.00 0.00
4:15 am 04:15 Partly Cloudy 30 -1 21 -6 69 69 WNW 9 15 30.43 1031 10 16 0.00 0.00
4:35 am 04:35 Clear 30 -1 21 -6 69 69 WNW 8 13 30.42 1030 10 16 0.00 0.00
4:55 am 04:55 Clear 28 -2 21 -6 74 74 WNW 8 13 30.44 1031 10 16 0.00 0.00
5:15 am 05:15 Clear 28 -2 21 -6 74 74 VRB 7 11 30.44 1031 10 16 0.00 0.00
5:35 am 05:35 Clear 28 -2 19 -7 69 69 VRB 6 9 30.44 1031 10 16 0.00 0.00
5:55 am 05:55 Clear 28 -2 19 -7 69 69 VRB 7 11 30.45 1031 10 16 0.00 0.00
6:15 am 06:15 Clear 28 -2 18 -8 64 64 VRB 7 11 30.46 1031 10 16 0.00 0.00
6:35 am 06:35 Clear 28 -2 18 -8 64 64 VRB 7 11 30.46 1031 10 16 0.00 0.00
6:55 am 06:55 Clear 28 -2 16 -9 59 59 VRB 6 9 30.47 1032 10 16 0.00 0.00
7:15 am 07:15 Clear 27 -3 16 -9 64 64 NNW 9 15 30.47 1032 10 16 0.00 0.00
7:35 am 07:35 Sunny 27 -3 16 -9 64 64 VRB 6 9 30.47 1032 10 16 0.00 0.00
7:55 am 07:55 Sunny 27 -3 16 -9 64 64 VRB 3 6 30.48 1032 10 16 0.00 0.00
8:15 am 08:15 Sunny 27 -3 16 -9 64 64 NNW 8 13 30.48 1032 10 16 0.00 0.00
8:35 am 08:35 Sunny 28 -2 16 -9 59 59 Calm 30.49 1032 10 16 0.00 0.00
8:55 am 08:55 Sunny 28 -2 16 -9 59 59 VRB 5 7 30.49 1032 10 16 0.00 0.00
9:15 am 09:15 Sunny 28 -2 16 -9 59 59 NNW 13 20 30.49 1032 10 16 0.00 0.00
9:35 am 09:35 Sunny 28 -2 16 -9 59 59 NNE 13 20 30.50 1033 10 16 0.00 0.00
9:55 am 09:55 Sunny 30 -1 16 -9 55 55 N 12 19 30.49 1033 10 16 0.00 0.00
10:15 am 10:15 Sunny 30 -1 12 -11 47 47 NNW 8 13 30.49 1033 10 16 0.00 0.00
10:35 am 10:35 Sunny 32 0 14 -10 47 47 VRB 7 11 30.49 1032 10 16 0.00 0.00
10:55 am 10:55 Sunny 32 0 16 -9 51 51 N 8 13 30.50 1033 10 16 0.00 0.00
11:15 am 11:15 Sunny 34 1 14 -10 44 44 NW 8 13 30.50 1033 10 16 0.00 0.00
11:35 am 11:35 Sunny 34 1 14 -10 44 44 VRB 7 11 30.50 1033 10 16 0.00 0.00
11:55 am 11:55 Sunny 34 1 14 -10 44 44 VRB 7 11 30.49 1032 10 16 0.00 0.00
12:15 pm 12:15 Sunny 36 2 12 -11 38 38 VRB 6 9 30.48 1032 10 16 0.00 0.00
12:35 pm 12:35 Sunny 36 2 14 -10 41 41 NNW 8 13 30.47 1032 10 16 0.00 0.00
12:55 pm 12:55 Sunny 37 3 14 -10 38 38 WNW 12 19 30.46 1032 10 16 0.00 0.00
1:15 pm 13:15 Sunny 37 3 10 -12 33 33 NNW 9 15 30.45 1031 10 16 0.00 0.00
1:35 pm 13:35 Sunny 37 3 14 -10 38 38 VRB 7 11 30.44 1031 10 16 0.00 0.00
1:55 pm 13:55 Sunny 37 3 10 -12 33 33 N 9 15 30.43 1030 10 16 0.00 0.00
2:15 pm 14:15 Sunny 39 4 12 -11 33 33 NW 9 15 30.42 1030 10 16 0.00 0.00
2:35 pm 14:35 Sunny 39 4 14 -10 36 36 VRB 5 7 30.42 1030 10 16 0.00 0.00
2:55 pm 14:55 Sunny 39 4 12 -11 33 33 NW 8 13 30.41 1030 10 16 0.00 0.00
3:15 pm 15:15 Sunny 39 4 12 -11 33 33 VRB 7 11 30.40 1029 10 16 0.00 0.00
3:35 pm 15:35 Sunny 39 4 12 -11 33 33 WNW 7 11 30.40 1029 10 16 0.00 0.00
3:55 pm 15:55 Sunny 41 5 12 -11 31 31 WNW 8 13 30.38 1029 10 16 0.00 0.00
4:15 pm 16:15 Sunny 41 5 14 -10 33 33 VRB 6 9 30.38 1029 10 16 0.00 0.00
4:35 pm 16:35 Sunny 41 5 12 -11 31 31 VRB 5 7 30.38 1029 10 16 0.00 0.00
4:55 pm 16:55 Sunny 39 4 12 -11 33 33 VRB 6 9 30.40 1029 10 16 0.00 0.00
5:15 pm 17:15 Sunny 41 5 14 -10 33 33 VRB 6 9 30.39 1029 10 16 0.00 0.00
5:35 pm 17:35 Sunny 39 4 14 -10 36 36 Calm 30.40 1029 10 16 0.00 0.00
5:55 pm 17:55 Sunny 39 4 14 -10 36 36 Calm 30.39 1029 10 16 0.00 0.00
6:15 pm 18:15 Clear 37 3 14 -10 38 38 NNW 3 6 30.39 1029 10 16 0.00 0.00
6:35 pm 18:35 Clear 37 3 14 -10 38 38 Calm 30.40 1029 10 16 0.00 0.00
6:55 pm 18:55 Clear 36 2 14 -10 41 41 Calm 30.40 1030 10 16 0.00 0.00
7:15 pm 19:15 Clear 36 2 14 -10 41 41 Calm 30.40 1030 10 16 0.00 0.00
7:35 pm 19:35 Clear 36 2 14 -10 41 41 Calm 30.40 1030 10 16 0.00 0.00
7:55 pm 19:55 Clear 34 1 14 -10 44 44 Calm 30.42 1030 10 16 0.00 0.00
8:15 pm 20:15 Clear 34 1 16 -9 48 48 Calm 30.41 1030 10 16 0.00 0.00
8:35 pm 20:35 Clear 32 0 14 -10 47 47 Calm 30.42 1030 10 16 0.00 0.00
8:55 pm 20:55 Clear 32 0 16 -9 51 51 Calm 30.42 1030 10 16 0.00 0.00
9:15 pm 21:15 Clear 30 -1 18 -8 59 59 Calm 30.42 1030 10 16 0.00 0.00
9:35 pm 21:35 Clear 32 0 16 -9 51 51 Calm 30.42 1030 10 16 0.00 0.00
9:55 pm 21:55 Clear 30 -1 18 -8 59 59 Calm 30.42 1030 10 16 0.00 0.00
10:15 pm 22:15 Clear 28 -2 21 -6 74 74 Calm 30.43 1030 10 16 0.00 0.00
10:35 pm 22:35 Clear 28 -2 19 -7 69 69 Calm 30.42 1030 10 16 0.00 0.00
10:55 pm 22:55 Clear 28 -2 21 -6 74 74 Calm 30.43 1030 10 16 0.00 0.00
11:15 pm 23:15 Clear 28 -2 21 -6 74 74 Calm 30.43 1030 10 16 0.00 0.00
11:35 pm 23:35 Clear 27 -3 19 -7 74 74 Calm 30.43 1030 10 16 0.00 0.00
11:55 pm 23:55 Clear 28 -2 21 -6 74 74 Calm 30.43 1030 10 16 0.00 0.00

Powered by AerisWeather